Change the Weather History Date:

Sunday, March 17, 2013

  Actual Average Record
Temperature  
Mean Temperature 46 °F -  
Max Temperature 59 °F 51 °F 73 °F (2007)
Min Temperature 33 °F 31 °F 10 °F (1988)
Degree Days  
Heating Degree Days 19    
Moisture  
Dew Point 19 °F    
Average Humidity 43    
Maximum Humidity 75    
Minimum Humidity 11    
Precipitation  
Precipitation 0.00 in - - ()
Sea Level Pressure  
Sea Level Pressure 29.71 in    
Wind  
Wind Speed 9 mph (West)    
Max Wind Speed 46 mph    
Max Gust Speed 58 mph    
Visibility 10 miles    
Events      
Averages and records for this station are not official NWS values.
T = Trace of Precipitation, MM = Missing Value Source: NWS Daily Summary

Daily Weather History Graph

Daily Weather History Graph

Search for Another Location

Airport or City:

Trip Planner

Search our weather history database for the weather conditions in past years. The results will help you decide how hot, cold, wet, or windy it might be!

Date:

Astronomy

Mar. 17, 2013 Rise Set
Actual Time 7:08 AM MDT 7:09 PM MDT
Civil Twilight 6:41 AM MDT 7:36 PM MDT
Nautical Twilight 6:09 AM MDT 8:08 PM MDT
Astronomical Twilight 5:37 AM MDT 8:40 PM MDT
Moon 10:23 AM MDT (3/17) 12:19 AM MDT (3/17)
Length of Visible Light 12h 55m
Length of Day
12h 01m
Waxing Crescent, 32% of the Moon is Illuminated
Mar 17
Waxing Crescent
Mar 19
First Quarter
Mar 27
Full
Apr 2
Last Quarter
Apr 10
New

Hourly Weather History & Observations

Time (MDT) Temp. Windchill Dew Point Humidity Pressure Visibility Wind Dir Wind Speed Gust Speed Precip Events Conditions
12:15 AM 41.0 °F 35.2 °F 24.8 °F 53% 29.82 in 10.0 mi WSW 9.2 mph - N/A   Clear
12:35 AM 39.2 °F 33.0 °F 24.8 °F 56% 29.81 in 10.0 mi West 9.2 mph - N/A   Clear
12:55 AM 42.8 °F - 23.0 °F 46% 29.80 in 10.0 mi Calm Calm - N/A   Clear
1:15 AM 44.6 °F - 23.0 °F 43% 29.78 in 10.0 mi Calm Calm - N/A   Clear
1:35 AM 42.8 °F 37.5 °F 23.0 °F 46% 29.78 in 10.0 mi South 9.2 mph - N/A   Clear
1:54 AM 42.8 °F 37.5 °F 23.0 °F 46% 29.78 in 10.0 mi WSW 9.2 mph - N/A   Clear
2:15 AM 39.2 °F 34.2 °F 23.0 °F 52% 29.77 in 10.0 mi SW 6.9 mph - N/A   Clear
2:35 AM 39.2 °F 37.0 °F 23.0 °F 52% 29.76 in 10.0 mi WNW 3.5 mph - N/A   Clear
2:55 AM 41.0 °F 37.1 °F 23.0 °F 49% 29.76 in 10.0 mi North 5.8 mph - N/A   Clear
3:15 AM 37.4 °F 30.8 °F 24.8 °F 60% 29.76 in 10.0 mi North 9.2 mph - N/A   Clear
3:55 AM 37.4 °F 33.8 °F 26.6 °F 65% 29.74 in 10.0 mi NW 4.6 mph - N/A   Clear
4:15 AM 35.6 °F - 26.6 °F 70% 29.73 in 10.0 mi Calm Calm - N/A   Clear
4:35 AM 35.6 °F - 26.6 °F 70% 29.72 in 10.0 mi Calm Calm - N/A   Clear
4:55 AM 35.6 °F 32.8 °F 26.6 °F 70% 29.72 in 10.0 mi SSW 3.5 mph - N/A   Clear
5:15 AM 33.8 °F - 26.6 °F 75% 29.70 in 10.0 mi Calm Calm - N/A   Clear
5:35 AM 33.8 °F 29.6 °F 23.0 °F 65% 29.70 in 10.0 mi WSW 4.6 mph - N/A   Clear
5:55 AM 35.6 °F - 23.0 °F 60% 29.69 in 10.0 mi Calm Calm - N/A   Clear
6:48 AM 35.6 °F 30.7 °F 21.2 °F 56% 29.67 in 40.0 mi SW 5.8 mph - N/A   Partly Cloudy
7:50 AM 39.2 °F - 19.4 °F 45% 29.65 in 30.0 mi Calm Calm - N/A   Scattered Clouds
8:35 AM 46.4 °F 41.9 °F 17.6 °F 32% 29.68 in 30.0 mi WNW 9.2 mph 16.1 mph N/A   Mostly Cloudy
8:55 AM 50.0 °F - 19.4 °F 30% 29.66 in 30.0 mi WNW 5.8 mph - N/A   Mostly Cloudy
9:33 AM 50.0 °F - 23.0 °F 35% 29.65 in 60.0 mi West 34.5 mph 42.6 mph N/A   Mostly Cloudy
9:50 AM 48.2 °F - 24.8 °F 40% 29.65 in 60.0 mi West 21.9 mph 41.4 mph N/A   Mostly Cloudy
10:50 AM 53.6 °F - 17.6 °F 24% 29.64 in 60.0 mi SW 10.4 mph 23.0 mph N/A   Mostly Cloudy
11:50 AM 57.2 °F - 14.0 °F 18% 29.61 in 60.0 mi SSW 10.4 mph 41.4 mph N/A   Mostly Cloudy
12:50 PM 59.0 °F - 10.4 °F 15% 29.57 in 40.0 mi WSW 19.6 mph 26.5 mph N/A   Mostly Cloudy
1:45 PM 57.2 °F - 8.6 °F 14% 29.56 in 30.0 mi West 36.8 mph 43.7 mph N/A   Mostly Cloudy
3:51 PM 55.4 °F - 10.4 °F 17% 29.54 in 50.0 mi West 17.3 mph 32.2 mph N/A   Scattered Clouds
4:16 PM 57.2 °F - 3.2 °F 11% 29.55 in 50.0 mi West 46.0 mph 57.5 mph N/A   Scattered Clouds
4:47 PM 53.6 °F - 14.0 °F 21% 29.58 in 50.0 mi WSW 28.8 mph 40.3 mph N/A   Mostly Cloudy
5:48 PM 48.2 °F - 17.6 °F 30% 29.62 in 50.0 mi SW 12.7 mph 20.7 mph N/A   Mostly Cloudy
6:48 PM 42.8 °F 36.6 °F 17.6 °F 36% 29.66 in 50.0 mi WSW 11.5 mph 18.4 mph N/A   Mostly Cloudy
7:46 PM 41.0 °F 32.5 °F 19.4 °F 42% 29.70 in 30.0 mi WSW 17.3 mph 26.5 mph N/A   Mostly Cloudy
8:47 PM 39.2 °F 32.5 °F 17.6 °F 42% 29.73 in 30.0 mi West 10.4 mph - N/A   Mostly Cloudy
9:09 PM 39.2 °F 28.3 °F 15.8 °F 39% 29.72 in 30.0 mi West 25.3 mph 34.5 mph N/A   Scattered Clouds
9:46 PM 37.4 °F 26.1 °F 15.8 °F 41% 29.79 in 30.0 mi WNW 24.2 mph - N/A   Scattered Clouds
11:15 PM 35.6 °F 28.0 °F 12.2 °F 38% 29.82 in 10.0 mi WNW 10.4 mph 18.4 mph N/A   Clear
11:35 PM 35.6 °F 28.0 °F 10.4 °F 35% 29.83 in 10.0 mi NW 10.4 mph 19.6 mph N/A   Clear
11:55 PM 35.6 °F 27.1 °F 8.6 °F 33% 29.83 in 10.0 mi NW 12.7 mph 20.7 mph N/A   Clear